Tracking 21606 objects as of 24-Oct-2020
HD Live streaming from Space Station
objects crossing your sky now

GONETS D1 7

Track GONETS D1 7 now!
10-day predictions
GONETS D1 7 is classified as:


NORAD ID: 27058
Int'l Code: 2001-058D
Perigee: 1,419.2 km
Apogee: 1,424.2 km
Inclination: 82.5 °
Period: 114.1 minutes
Semi major axis: 7792 km
RCS: 0.883 m2 (medium)
Launch date: December 28, 2001
Source: Commonwealth of Independent States (former USSR) (CIS)
Launch site: PLESETSK MISSILE AND SPACE COMPLEX (PKMTR)
aabbcc
Your satellite tracking list
Your tracking list is empty




NASA's NSSDC Master Catalog

Two Line Element Set (TLE):
1 27058U 01058D   20298.50223265 -.00000014  00000-0 -13694-3 0  9995
2 27058  82.5311  84.4628 0003182   2.6734 357.4374 12.62026991867228
Source of the keplerian elements: AFSPC